When you browse on this site, cookies collect data to enhance your experience and personalize the content and advertising you see.
Visit our Privacy Policy to learn more. By continuing to use the site, you agree to this use of cookies and data.
  • In Deutschland
  • Länderverzeichnis
  • Für 7 Tage
  • Wassertemperatur
  • Satellitenkarten
  • Wetterkarte
  • Widgets
  • user-avatar
    Anmelden

    Stündliche Wetter Sapiranga

    Heute, 19 Dezember, Mittwoch

    Zeit Temperatur Niederschläge Wind Luftdruck Luftfeuchtigkeit
    00:00 +23°C° 0 mm 1 m/S 757 mmHg 96%
    01:00 +23°C° 0 mm 1 m/S 757 mmHg 97%
    02:00 +23°C° 0 mm 1 m/S 756 mmHg 97%
    03:00 +23°C° 0 mm 1 m/S 756 mmHg 97%
    04:00 +23°C° 0 mm 1 m/S 756 mmHg 97%
    05:00 +23°C° 0 mm 1 m/S 755 mmHg 97%
    06:00 +23°C° 0 mm 1 m/S 755 mmHg 97%
    07:00 +26°C° 0.1 mm 1 m/S 755 mmHg 89%
    08:00 +28°C° 0.1 mm 1 m/S 755 mmHg 80%
    09:00 +30°C° 0.1 mm 1 m/S 755 mmHg 72%
    10:00 +31°C° 0.6 mm 1 m/S 755 mmHg 69%
    11:00 +32°C° 0.6 mm 2 m/S 755 mmHg 67%
    12:00 +34°C° 0.6 mm 2 m/S 755 mmHg 64%
    13:00 +34°C° 0.5 mm 2 m/S 754 mmHg 64%
    14:00 +34°C° 0.5 mm 2 m/S 754 mmHg 65%
    15:00 +34°C° 0.5 mm 2 m/S 753 mmHg 65%
    16:00 +32°C° 0.6 mm 2 m/S 753 mmHg 70%
    17:00 +31°C° 0.6 mm 2 m/S 753 mmHg 74%
    18:00 +30°C° 0.6 mm 2 m/S 753 mmHg 79%
    19:00 +29°C° 0.1 mm 2 m/S 753 mmHg 83%
    20:00 +27°C° 0.1 mm 2 m/S 753 mmHg 87%
    21:00 +26°C° 0.1 mm 2 m/S 753 mmHg 91%
    22:00 +25°C° 0.1 mm 2 m/S 753 mmHg 92%
    23:00 +25°C° 0.1 mm 2 m/S 753 mmHg 93%

    Morgen, 20 Dezember, Donnerstag

    Zeit Temperatur Niederschläge Wind Luftdruck Luftfeuchtigkeit
    00:00 +25°C° 0.1 mm 2 m/S 753 mmHg 94%
    01:00 +25°C° 0.1 mm 1 m/S 753 mmHg 94%
    02:00 +24°C° 0.1 mm 1 m/S 752 mmHg 94%
    03:00 +24°C° 0.1 mm 1 m/S 752 mmHg 94%
    04:00 +24°C° 0.4 mm 1 m/S 752 mmHg 94%
    05:00 +25°C° 0.4 mm 1 m/S 752 mmHg 94%
    06:00 +25°C° 0.4 mm 1 m/S 752 mmHg 93%
    07:00 +26°C° 1.1 mm 1 m/S 752 mmHg 90%
    08:00 +27°C° 1.1 mm 1 m/S 752 mmHg 87%
    09:00 +29°C° 1.1 mm 1 m/S 752 mmHg 84%
    10:00 +30°C° 2 mm 1 m/S 752 mmHg 82%
    11:00 +31°C° 2 mm 1 m/S 752 mmHg 79%
    12:00 +32°C° 2 mm 1 m/S 752 mmHg 77%
    13:00 +33°C° 1 mm 1 m/S 752 mmHg 71%
    14:00 +34°C° 1 mm 1 m/S 751 mmHg 64%
    15:00 +35°C° 1 mm 1 m/S 751 mmHg 57%
    16:00 +32°C° 4.4 mm 1 m/S 751 mmHg 68%
    17:00 +30°C° 4.4 mm 1 m/S 751 mmHg 79%
    18:00 +28°C° 4.4 mm 1 m/S 750 mmHg 90%
    19:00 +27°C° 1.8 mm 1 m/S 751 mmHg 91%
    20:00 +26°C° 1.8 mm 1 m/S 752 mmHg 92%
    21:00 +26°C° 1.8 mm 1 m/S 752 mmHg 94%
    22:00 +26°C° 2.1 mm 1 m/S 752 mmHg 94%
    23:00 +25°C° 2.1 mm 1 m/S 752 mmHg 94%

    übermorgen, 21 Dezember, Freitag

    Zeit Temperatur Niederschläge Wind Luftdruck Luftfeuchtigkeit
    00:00 +25°C° 2.1 mm 1 m/S 752 mmHg 95%
    01:00 +25°C° 0.5 mm 1 m/S 752 mmHg 95%
    02:00 +25°C° 0.5 mm 1 m/S 751 mmHg 94%
    03:00 +25°C° 0.5 mm 1 m/S 751 mmHg 94%
    04:00 +25°C° 0.3 mm 1 m/S 751 mmHg 94%
    05:00 +25°C° 0.3 mm 1 m/S 751 mmHg 94%
    06:00 +25°C° 0.3 mm 1 m/S 751 mmHg 94%
    07:00 +25°C° 2.5 mm 1 m/S 751 mmHg 94%
    08:00 +25°C° 2.5 mm 1 m/S 751 mmHg 94%
    09:00 +26°C° 2.5 mm 2 m/S 751 mmHg 94%
    10:00 +26°C° 3.2 mm 1 m/S 751 mmHg 95%
    11:00 +26°C° 3.2 mm 1 m/S 751 mmHg 95%
    12:00 +26°C° 3.2 mm 1 m/S 751 mmHg 96%
    13:00 +27°C° 0.5 mm 2 m/S 751 mmHg 90%
    14:00 +28°C° 0.5 mm 3 m/S 750 mmHg 85%
    15:00 +29°C° 0.5 mm 3 m/S 750 mmHg 80%
    16:00 +30°C° 0.2 mm 3 m/S 749 mmHg 77%
    17:00 +30°C° 0.2 mm 2 m/S 749 mmHg 74%
    18:00 +30°C° 0.2 mm 2 m/S 749 mmHg 71%
    19:00 +29°C° 0 mm 2 m/S 749 mmHg 76%
    20:00 +28°C° 0 mm 1 m/S 749 mmHg 81%
    21:00 +26°C° 0 mm 1 m/S 750 mmHg 87%
    22:00 +26°C° 0 mm 1 m/S 750 mmHg 88%
    23:00 +26°C° 0 mm 1 m/S 750 mmHg 90%

    22 Dezember, Samstag

    Zeit Temperatur Niederschläge Wind Luftdruck Luftfeuchtigkeit
    00:00 +25°C° 0 mm 1 m/S 750 mmHg 91%
    01:00 +25°C° 0.1 mm 1 m/S 750 mmHg 93%
    02:00 +25°C° 0.1 mm 2 m/S 750 mmHg 94%
    03:00 +25°C° 0.1 mm 2 m/S 749 mmHg 95%
    04:00 +25°C° 0 mm 2 m/S 750 mmHg 95%
    05:00 +25°C° 0 mm 2 m/S 750 mmHg 96%
    06:00 +25°C° 0 mm 2 m/S 750 mmHg 96%
    07:00 +26°C° 0.1 mm 2 m/S 751 mmHg 90%
    08:00 +28°C° 0.1 mm 2 m/S 751 mmHg 84%
    09:00 +29°C° 0.1 mm 2 m/S 751 mmHg 78%
    10:00 +30°C° 0.3 mm 3 m/S 751 mmHg 72%
    11:00 +31°C° 0.3 mm 3 m/S 751 mmHg 66%
    12:00 +34°C° 0.3 mm 3 m/S 750 mmHg 59%
    13:00 +34°C° 0.2 mm 3 m/S 750 mmHg 56%
    14:00 +34°C° 0.2 mm 3 m/S 750 mmHg 53%
    15:00 +35°C° 0.2 mm 3 m/S 749 mmHg 49%
    16:00 +33°C° 0.1 mm 3 m/S 750 mmHg 53%
    17:00 +31°C° 0.1 mm 3 m/S 750 mmHg 57%
    18:00 +30°C° 0.1 mm 2 m/S 750 mmHg 61%
    19:00 +28°C° 0 mm 2 m/S 751 mmHg 70%
    20:00 +26°C° 0 mm 2 m/S 751 mmHg 79%
    21:00 +24°C° 0 mm 1 m/S 752 mmHg 87%
    22:00 +24°C° 0 mm 1 m/S 752 mmHg 88%
    23:00 +23°C° 0 mm 1 m/S 753 mmHg 89%

    23 Dezember, Sonntag

    Zeit Temperatur Niederschläge Wind Luftdruck Luftfeuchtigkeit
    00:00 +23°C° 0 mm 1 m/S 753 mmHg 90%
    01:00 +23°C° 0 mm 1 m/S 753 mmHg 91%
    02:00 +22°C° 0 mm 1 m/S 752 mmHg 91%
    03:00 +22°C° 0 mm 1 m/S 752 mmHg 92%
    04:00 +22°C° 0 mm 1 m/S 753 mmHg 92%
    05:00 +22°C° 0 mm 1 m/S 753 mmHg 92%
    06:00 +22°C° 0 mm 1 m/S 754 mmHg 92%
    07:00 +23°C° 0.1 mm 1 m/S 754 mmHg 88%
    08:00 +23°C° 0.1 mm 1 m/S 754 mmHg 84%
    09:00 +24°C° 0.1 mm 1 m/S 755 mmHg 80%
    10:00 +25°C° 0 mm 2 m/S 755 mmHg 74%
    11:00 +27°C° 0 mm 2 m/S 755 mmHg 67%
    12:00 +28°C° 0 mm 2 m/S 754 mmHg 61%
    13:00 +28°C° 0 mm 3 m/S 754 mmHg 61%
    14:00 +28°C° 0 mm 3 m/S 754 mmHg 60%
    15:00 +28°C° 0 mm 3 m/S 754 mmHg 60%
    16:00 +27°C° 0 mm 3 m/S 754 mmHg 64%
    17:00 +26°C° 0 mm 3 m/S 754 mmHg 68%
    18:00 +25°C° 0 mm 3 m/S 754 mmHg 72%
    19:00 +24°C° 0 mm 2 m/S 755 mmHg 78%
    20:00 +21°C° 0 mm 2 m/S 755 mmHg 83%
    21:00 +20°C° 0 mm 2 m/S 756 mmHg 88%
    22:00 +20°C° 0 mm 2 m/S 755 mmHg 90%
    23:00 +20°C° 0 mm 2 m/S 755 mmHg 92%

    24 Dezember, Montag

    Zeit Temperatur Niederschläge Wind Luftdruck Luftfeuchtigkeit
    00:00 +19°C° 0 mm 2 m/S 755 mmHg 93%
    01:00 +20°C° 0 mm 1 m/S 755 mmHg 93%
    02:00 +20°C° 0 mm 1 m/S 755 mmHg 93%
    03:00 +20°C° 0 mm 1 m/S 754 mmHg 94%
    04:00 +20°C° 0 mm 1 m/S 755 mmHg 93%
    05:00 +20°C° 0 mm 1 m/S 755 mmHg 93%
    06:00 +20°C° 0 mm 1 m/S 755 mmHg 93%
    07:00 +21°C° 0 mm 2 m/S 756 mmHg 84%
    08:00 +23°C° 0 mm 2 m/S 756 mmHg 76%
    09:00 +25°C° 0 mm 3 m/S 756 mmHg 68%
    10:00 +26°C° 0 mm 3 m/S 756 mmHg 65%
    11:00 +27°C° 0 mm 3 m/S 756 mmHg 62%
    12:00 +28°C° 0 mm 3 m/S 756 mmHg 58%
    13:00 +28°C° 0 mm 4 m/S 755 mmHg 57%
    14:00 +28°C° 0 mm 4 m/S 755 mmHg 56%
    15:00 +29°C° 0 mm 4 m/S 754 mmHg 54%
    16:00 +28°C° 0 mm 4 m/S 754 mmHg 58%
    17:00 +26°C° 0 mm 4 m/S 754 mmHg 62%
    18:00 +25°C° 0 mm 4 m/S 754 mmHg 66%
    19:00 +24°C° 0 mm 3 m/S 754 mmHg 70%
    20:00 +22°C° 0 mm 3 m/S 755 mmHg 75%
    21:00 +20°C° 0 mm 3 m/S 755 mmHg 80%
    22:00 +20°C° 0 mm 2 m/S 755 mmHg 81%
    23:00 +20°C° 0 mm 2 m/S 755 mmHg 82%
    Mehr zeigen